Overview Statistics Trail Chart Weather Telemetry Raw packets
 

This is the latest recevied weather packets stored in our database for station/object K9MWD. If no packets are shown the sender has not sent any weather packets the latest 10 day(s).

<< 10 11 12 13 14 15 16 >>
Time Temp. Humidity Pressure Rain* Wind** Luminosity Snow
1788563475 35.56° C 43% 1011.3 hPa 0 mm - 158 W/m² -
1788563174 35.56° C 44% 1011.4 hPa 0 mm - 106 W/m² -
1788562870 36.11° C 43% 1011.3 hPa 0 mm - 186 W/m² -
1788562567 36.11° C 43% 1011.4 hPa 0 mm - 213 W/m² -
1788562262 36.11° C 44% 1011.3 hPa 0 mm - 216 W/m² -
1788561957 36.11° C 44% 1011.3 hPa 0 mm - 240 W/m² -
1788561652 36.11° C 44% 1011.1 hPa 0 mm - 250 W/m² -
1788561351 35.56° C 45% 1011.3 hPa 0 mm - 101 W/m² -
1788561047 36.67° C 44% 1011.6 hPa 0 mm - 89 W/m² -
1788560742 37.22° C 42% 1011.6 hPa 0 mm - 122 W/m² -
1788560438 37.22° C 41% 1011.5 hPa 0 mm - 335 W/m² -
1788560132 36.67° C 42% 1011.5 hPa 0 mm - 361 W/m² -
1788559827 36.67° C 43% 1011.6 hPa 0 mm - 374 W/m² -
1788559526 36.11° C 43% 1011.5 hPa 0 mm - 118 W/m² -
1788559222 36.67° C 43% 1011.7 hPa 0 mm - 408 W/m² -
1788558922 37.22° C 42% 1011.7 hPa 0 mm - 115 W/m² -
1788558618 37.22° C 42% 1011.6 hPa 0 mm - 471 W/m² -
1788558313 37.78° C 43% 1011.8 hPa 0 mm - 510 W/m² -
1788558008 37.22° C 43% 1011.8 hPa 0 mm - 539 W/m² -
1788557706 37.22° C 43% 1011.7 hPa 0 mm - 573 W/m² -
1788557404 36.67° C 43% 1011.8 hPa 0 mm - 564 W/m² -
1788557102 36.11° C 44% 1011.8 hPa 0 mm - 569 W/m² -
1788556797 35.56° C 46% 1011.9 hPa 0 mm - 146 W/m² -
1788556492 36.11° C 45% 1012 hPa 0 mm - 149 W/m² -
1788556188 36.11° C 45% 1012.1 hPa 0 mm - 565 W/m² -

* Rain latest hour (hover to see other rain measurements)
** Current wind speed in m/s (hover to see current wind gust speed)